DLH1KY EDDF-EDDB

Flight info

Callsign DLH1KY
Flight time N/A
Altitude 31000
Route TOBAK3W/25C TOBAK N858 SWALM T201 TAMEB T278 KLF
Aircraft A320/M-SDE3FGHIRWY/LB1

Departure

Time 2026-04-18 10:47
Airport Frankfurt Main Airport (EDDF)

Arrival

Time N/A
Airport Berlin Brandenburg Airport (EDDB)
Time Latitude Longitude Altitude Speed Heading
2026-04-18 10:25 50.04466 8.56485 356 ft 0 kts 159°
2026-04-18 10:31 50.04469 8.56483 356 ft 2 kts 159°
2026-04-18 10:32 50.04485 8.56474 362 ft 2 kts 159°
2026-04-18 10:32 50.04500 8.56465 360 ft 2 kts 159°
2026-04-18 10:32 50.04515 8.56456 362 ft 2 kts 159°
2026-04-18 10:32 50.04531 8.56447 360 ft 2 kts 161°
2026-04-18 10:33 50.04547 8.56444 362 ft 2 kts 192°
2026-04-18 10:33 50.04563 8.56450 362 ft 2 kts 201°
2026-04-18 10:33 50.04564 8.56450 362 ft 0 kts 201°
2026-04-18 10:33 50.04577 8.56458 361 ft 2 kts 204°
2026-04-18 10:34 50.04585 8.56464 358 ft 0 kts 204°
2026-04-18 10:34 50.04592 8.56469 360 ft 0 kts 204°
2026-04-18 10:34 50.04593 8.56470 360 ft 0 kts 204°
2026-04-18 10:36 50.04591 8.56468 360 ft 3 kts 204°
2026-04-18 10:36 50.04569 8.56453 362 ft 3 kts 204°
2026-04-18 10:36 50.04545 8.56435 361 ft 4 kts 209°
2026-04-18 10:37 50.04516 8.56380 358 ft 9 kts 241°
2026-04-18 10:37 50.04495 8.56296 359 ft 10 kts 249°
2026-04-18 10:37 50.04471 8.56198 357 ft 9 kts 250°
2026-04-18 10:37 50.04452 8.56112 363 ft 8 kts 250°
2026-04-18 10:38 50.04425 8.56043 356 ft 7 kts 221°
2026-04-18 10:38 50.04378 8.56035 363 ft 9 kts 161°
2026-04-18 10:38 50.04319 8.56070 358 ft 9 kts 156°
2026-04-18 10:38 50.04290 8.56148 355 ft 8 kts 89°
2026-04-18 10:39 50.04290 8.56180 355 ft 3 kts 98°
2026-04-18 10:39 50.04270 8.56223 364 ft 5 kts 142°
2026-04-18 10:39 50.04254 8.56232 363 ft 6 kts 159°
2026-04-18 10:39 50.04214 8.56256 356 ft 7 kts 160°
2026-04-18 10:40 50.04167 8.56284 358 ft 7 kts 155°
2026-04-18 10:40 50.04149 8.56372 356 ft 14 kts 71°
2026-04-18 10:40 50.04193 8.56556 356 ft 20 kts 69°
2026-04-18 10:40 50.04242 8.56759 362 ft 20 kts 70°
2026-04-18 10:41 50.04289 8.56959 360 ft 21 kts 70°
2026-04-18 10:41 50.04340 8.57170 361 ft 21 kts 70°
2026-04-18 10:41 50.04393 8.57392 365 ft 23 kts 69°
2026-04-18 10:41 50.04448 8.57623 366 ft 22 kts 69°
2026-04-18 10:42 50.04499 8.57833 367 ft 18 kts 70°
2026-04-18 10:42 50.04534 8.57984 365 ft 13 kts 69°
2026-04-18 10:42 50.04556 8.58075 363 ft 8 kts 70°
2026-04-18 10:42 50.04569 8.58161 364 ft 8 kts 96°
2026-04-18 10:43 50.04543 8.58208 366 ft 4 kts 145°
2026-04-18 10:43 50.04521 8.58224 366 ft 3 kts 159°
2026-04-18 10:43 50.04507 8.58232 366 ft 0 kts 160°
2026-04-18 10:44 50.04470 8.58251 370 ft 6 kts 165°
2026-04-18 10:44 50.04425 8.58245 368 ft 10 kts 199°
2026-04-18 10:45 50.04392 8.58187 368 ft 0 kts 249°
2026-04-18 10:46 50.04391 8.58185 370 ft 2 kts 249°
2026-04-18 10:46 50.04325 8.57909 369 ft 64 kts 250°
2026-04-18 10:46 50.04092 8.56934 365 ft 126 kts 250°
2026-04-18 10:47 50.03727 8.55406 420 ft 167 kts 250°
2026-04-18 10:47 50.03316 8.53737 1069 ft 166 kts 250°
2026-04-18 10:47 50.02903 8.52043 1726 ft 171 kts 251°
2026-04-18 10:47 50.02394 8.50246 2062 ft 195 kts 238°
2026-04-18 10:48 50.01387 8.48726 2531 ft 208 kts 212°
2026-04-18 10:48 50.00011 8.47983 3176 ft 212 kts 189°
2026-04-18 10:48 49.98553 8.47663 3888 ft 211 kts 190°
2026-04-18 10:48 49.97101 8.47339 4613 ft 211 kts 190°
2026-04-18 10:49 49.95666 8.46902 5298 ft 211 kts 198°
2026-04-18 10:49 49.94196 8.46211 5652 ft 232 kts 198°
2026-04-18 10:49 49.92620 8.45399 6298 ft 242 kts 207°
2026-04-18 10:49 49.91321 8.43760 7066 ft 245 kts 234°
2026-04-18 10:50 49.90655 8.41324 7852 ft 250 kts 261°
2026-04-18 10:50 49.90827 8.38635 8658 ft 256 kts 290°
2026-04-18 10:50 49.91857 8.36364 9476 ft 263 kts 320°
2026-04-18 10:50 49.93481 8.35001 10213 ft 272 kts 335°
2026-04-18 10:51 49.95298 8.33813 10482 ft 296 kts 336°
2026-04-18 10:51 49.97276 8.32547 10706 ft 319 kts 336°
2026-04-18 10:51 49.99404 8.31185 10905 ft 343 kts 336°
2026-04-18 10:51 50.01707 8.29835 11155 ft 363 kts 343°
2026-04-18 10:52 50.04223 8.29133 11759 ft 372 kts 354°
2026-04-18 10:52 50.06826 8.29225 12484 ft 378 kts
2026-04-18 10:52 50.09402 8.30155 13214 ft 383 kts 16°
2026-04-18 10:52 50.11940 8.31485 13943 ft 387 kts 16°
2026-04-18 10:53 50.14500 8.32830 14576 ft 390 kts 16°
2026-04-18 10:53 50.17086 8.34186 15193 ft 394 kts 15°
2026-04-18 10:53 50.19701 8.35556 15792 ft 398 kts 15°
2026-04-18 10:53 50.22336 8.36934 16398 ft 402 kts 15°
2026-04-18 10:54 50.25000 8.38330 16988 ft 406 kts 15°
2026-04-18 10:54 50.27653 8.39901 17565 ft 412 kts 22°
2026-04-18 10:54 50.30153 8.42169 18107 ft 419 kts 33°
2026-04-18 10:54 50.32417 8.45087 18622 ft 425 kts 39°
2026-04-18 10:55 50.34633 8.48175 19114 ft 428 kts 39°
2026-04-18 10:55 50.36871 8.51285 19559 ft 432 kts 39°
2026-04-18 10:55 50.39128 8.54422 20021 ft 435 kts 39°
2026-04-18 10:55 50.41394 8.57574 20475 ft 437 kts 39°
2026-04-18 10:56 50.43675 8.60751 20916 ft 440 kts 39°
2026-04-18 10:56 50.45980 8.63932 21356 ft 442 kts 39°
2026-04-18 10:56 50.48328 8.67063 21788 ft 445 kts 38°
2026-04-18 10:56 50.50716 8.70177 22201 ft 447 kts 37°
2026-04-18 10:57 50.53118 8.73285 22605 ft 450 kts 37°
2026-04-18 10:57 50.55497 8.76515 22983 ft 454 kts 43°
2026-04-18 10:57 50.57580 8.80276 23335 ft 459 kts 52°
2026-04-18 10:57 50.59271 8.84554 23705 ft 463 kts 60°
2026-04-18 10:58 50.60805 8.89020 24022 ft 465 kts 60°
2026-04-18 10:58 50.62354 8.93505 24333 ft 467 kts 60°
2026-04-18 10:58 50.63916 8.98005 24625 ft 469 kts 60°
2026-04-18 10:58 50.65489 9.02527 24916 ft 472 kts 60°
2026-04-18 10:59 50.67070 9.07065 25205 ft 474 kts 60°